Temperature
-3 -3 -3 -3 -3 -3 -3 -4 -3 -3 -3 -3 -3 -4 -4 -4 -3 -3 -3 -3 -3 -3 -2 -2 -1 -1 -1 -0 -0 0 0 1 1 1 1 1 2 2 2 2 2 2 3 3
-4 -3 -3 -3 -4 -3 -3 -4 -4 -3 -4 -4 -4 -4 -4 -4 -4 -4 -4 -4 -4 -3 -3 -3 -2 -2 -2 -1 -1 -1 -0 0 0 1 1 1 1 1 1 1 2 2 2 2
-4 -4 -3 -4 -5 -5 -4 -5 -5 -4 -4 -4 -4 -4 -4 -4 -4 -4 -4 -4 -4 -4 -4 -3 -3 -3 -2 -2 -1 -1 -1 -1 -0 -0 0 0 1 1 1 1 1 1 2 2
-5 -5 -5 -5 -5 -5 -5 -5 -5 -5 -5 -5 -5 -5 -4 -4 -4 -4 -4 -4 -4 -4 -4 -4 -3 -3 -3 -2 -2 -2 -1 -1 -1 -1 -1 -0 0 1 1 1 1 1 1 1
-5 -6 -5 -5 -5 -6 -5 -5 -5 -5 -5 -5 -5 -5 -4 -4 -4 -4 -5 -5 -5 -5 -4 -4 -4 -3 -3 -3 -2 -2 -2 -2 -1 -1 -1 -1 -0 0 0 0 0 0 1 1
-6 -5 -6 -5 -5 -5 -5 -6 -5 -6 -6 -6 -6 -5 -5 -4 -5 -5 -5 -5 -5 -5 -5 -4 -4 -4 -3 -3 -3 -3 -3 -2 -2 -2 -2 -1 -1 -1 -0 -0 -0 0 0 0
-7 -6 -6 -6 -6 -5 -6 -6 -5 -6 -6 -6 -6 -6 -5 -5 -5 -5 -5 -5 -5 -5 -5 -5 -4 -4 -4 -4 -4 -4 -3 -3 -2 -2 -2 -2 -2 -1 -1 -1 -1 -0 -0 -0
-7 -7 -7 -6 -6 -7 -7 -6 -6 -6 -6 -6 -6 -6 -6 -6 -6 -6 -6 -5 -5 -5 -5 -5 -5 -4 -4 -4 -4 -4 -4 -3 -3 -3 -2 -2 -2 -2 -1 -1 -1 -1 -1 -1
-8 -7 -7 -6 -7 -6 -6 -7 -7 -7 -7 -7 -7 -6 -6 -6 -6 -6 -6 -6 -6 -6 -6 -5 -5 -5 -5 -5 -5 -4 -4 -4 -3 -3 -3 -2 -2 -2 -2 -2 -2 -2 -2 -2
-9 -8 -7 -7 -7 -7 -7 -7 -7 -7 -7 -7 -7 -7 -7 -7 -7 -7 -7 -6 -6 -6 -6 -6 -5 -5 -5 -5 -5 -5 -5 -4 -4 -4 -3 -3 -3 -3 -3 -2 -2 -2 -3 -2
-9 -9 -8 -7 -7 -7 -7 -7 -7 -7 -7 -7 -7 -7 -7 -7 -7 -7 -7 -7 -7 -7 -6 -6 -6 -6 -6 -6 -6 -5 -5 -5 -5 -4 -4 -4 -3 -3 -3 -3 -3 -3 -3 -3
-9 -8 -8 -7 -7 -7 -8 -8 -8 -8 -8 -8 -8 -8 -8 -8 -8 -8 -8 -7 -7 -7 -7 -7 -6 -6 -6 -6 -6 -6 -6 -5 -5 -5 -5 -5 -4 -4 -4 -4 -4 -3 -3 -3
-8 -8 -8 -8 -8 -8 -8 -8 -8 -8 -8 -8 -8 -8 -8 -8 -8 -8 -8 -8 -8 -8 -7 -7 -7 -7 -7 -7 -6 -6 -6 -6 -6 -6 -5 -5 -5 -5 -4 -4 -4 -4 -4 -4
-8 -8 -8 -8 -8 -8 -8 -8 -8 -8 -8 -8 -8 -8 -8 -8 -8 -8 -8 -8 -8 -8 -8 -8 -8 -7 -7 -7 -7 -7 -7 -6 -6 -6 -6 -6 -6 -6 -5 -5 -5 -4 -4 -4
-8 -8 -8 -8 -8 -8 -8 -8 -8 -8 -8 -8 -8 -8 -8 -8 -8 -8 -8 -8 -8 -8 -8 -8 -8 -8 -8 -8 -7 -7 -7 -7 -7 -6 -6 -6 -6 -6 -6 -6 -5 -5 -5 -5
-8 -8 -8 -9 -9 -9 -9 -9 -9 -9 -9 -9 -9 -9 -9 -9 -9 -9 -9 -9 -9 -8 -9 -8 -8 -8 -8 -8 -8 -8 -7 -7 -7 -7 -7 -7 -6 -6 -6 -6 -6 -6 -6 -5
-9 -9 -9 -9 -9 -9 -9 -9 -9 -9 -9 -9 -9 -9 -9 -9 -9 -9 -9 -9 -9 -9 -9 -9 -9 -9 -8 -8 -8 -8 -8 -7 -7 -7 -7 -7 -7 -7 -7 -6 -6 -6 -6 -6
-9 -9 -9 -9 -9 -9 -9 -9 -9 -9 -9 -9 -9 -9 -9 -9 -9 -9 -9 -9 -9 -9 -9 -9 -9 -9 -9 -9 -9 -8 -8 -8 -8 -8 -7 -7 -7 -7 -7 -7 -7 -7 -6 -6
-9 -9 -9 -9 -9 -10 -10 -10 -10 -10 -10 -10 -9 -9 -10 -10 -10 -10 -10 -10 -9 -9 -9 -9 -9 -9 -9 -9 -9 -9 -8 -8 -8 -8 -8 -8 -8 -8 -7 -7 -7 -7 -7 -7
-9 -9 -9 -9 -10 -10 -10 -10 -10 -10 -10 -10 -10 -10 -10 -10 -10 -10 -10 -10 -10 -10 -10 -10 -9 -9 -9 -9 -9 -9 -9 -9 -8 -8 -8 -8 -8 -8 -8 -8 -8 -8 -7 -7
-9 -9 -9 -10 -10 -10 -10 -10 -10 -10 -10 -10 -10 -10 -10 -10 -10 -10 -10 -10 -10 -10 -10 -10 -10 -10 -10 -10 -9 -9 -9 -9 -9 -9 -9 -9 -9 -9 -9 -8 -8 -8 -8 -8
-9 -9 -10 -10 -10 -10 -10 -10 -10 -10 -11 -11 -11 -11 -11 -11 -11 -11 -11 -11 -11 -11 -10 -10 -10 -10 -10 -10 -10 -9 -9 -9 -9 -9 -9 -9 -9 -9 -9 -9 -9 -8 -8 -8
-10 -10 -10 -10 -10 -10 -10 -10 -11 -11 -11 -11 -11 -11 -12 -12 -12 -11 -11 -11 -11 -11 -11 -11 -10 -10 -10 -10 -10 -10 -10 -10 -10 -10 -10 -10 -10 -10 -9 -9 -9 -9 -8 -8
-10 -10 -10 -10 -10 -11 -11 -11 -11 -11 -11 -11 -12 -12 -12 -12 -12 -12 -12 -11 -11 -11 -11 -11 -11 -11 -11 -10 -10 -10 -10 -10 -10 -10 -10 -10 -10 -10 -10 -10 -9 -9 -9 -9
-10 -11 -11 -11 -11 -11 -11 -11 -11 -11 -11 -11 -12 -12 -12 -12 -12 -12 -12 -12 -12 -11 -11 -11 -11 -11 -11 -11 -11 -10 -10 -10 -10 -10 -10 -10 -10 -10 -10 -10 -10 -9 -9 -9
-11 -11 -11 -11 -11 -11 -11 -11 -11 -11 -12 -12 -12 -12 -12 -12 -12 -12 -12 -12 -12 -12 -12 -12 -11 -11 -11 -11 -11 -11 -11 -11 -10 -10 -10 -10 -10 -10 -10 -10 -10 -10 -9 -9
-11 -11 -11 -11 -11 -12 -12 -12 -12 -12 -12 -12 -12 -12 -12 -12 -12 -12 -12 -12 -12 -12 -12 -12 -12 -12 -11 -11 -11 -11 -11 -11 -11 -11 -11 -10 -10 -10 -10 -10 -10 -10 -10 -10
Wind_Speed
0 1 2 4 6 5 4 1 2 3 3 6 6 6 6 7 7 7 7 7 7 6 6 6 6 6 6 5 5 4 4 3 3 3 3 3 3 3 3 3 4 4 4 4
2 1 2 5 7 5 3 2 1 2 4 5 6 5 6 7 7 7 7 7 7 7 7 7 7 6 6 6 5 4 4 3 3 3 3 3 3 3 3 3 3 3 4 4
2 4 3 4 5 3 2 3 1 2 4 5 6 7 6 6 6 7 7 6 7 7 6 7 6 6 6 6 5 5 4 4 4 3 4 4 3 2 2 3 3 3 4 4
1 4 1 3 1 2 2 3 2 3 5 6 6 7 6 5 5 7 6 6 6 6 6 6 6 6 6 5 5 5 5 4 4 4 4 4 3 3 3 2 2 3 3 4
1 0 3 3 3 3 2 4 3 4 7 8 7 5 4 5 4 5 6 6 5 5 5 5 6 6 5 5 6 6 6 5 5 4 4 4 3 3 3 2 2 2 2 3
1 1 2 4 5 5 0 3 4 5 8 8 7 5 6 7 7 6 6 5 5 5 5 5 6 5 5 5 5 6 6 6 5 4 4 4 4 3 2 2 1 1 1 1
1 1 3 4 7 3 2 4 7 6 7 6 4 5 7 8 7 6 6 6 5 4 4 5 5 5 5 5 6 6 6 6 5 5 4 3 2 2 1 1 0 0 0 0
1 1 4 4 3 1 4 6 6 7 6 6 7 8 8 8 8 8 8 7 5 4 5 5 5 5 6 6 7 6 6 6 6 5 4 3 1 1 1 1 1 1 1 0
3 4 3 2 2 3 3 5 6 6 7 7 7 8 9 8 8 7 7 7 5 5 5 5 5 4 5 7 7 6 6 6 6 6 4 3 2 1 1 1 1 1 1 1
2 4 5 5 4 5 4 5 6 6 7 6 7 8 8 8 8 7 7 6 6 5 6 6 6 6 5 6 6 5 6 6 5 5 5 4 3 2 1 0 1 1 1 1
3 5 6 4 4 6 6 6 7 7 6 6 6 8 8 7 7 7 8 6 6 5 6 6 7 6 6 6 5 5 5 5 5 5 5 4 3 2 2 1 1 1 1 2
4 5 4 7 6 6 6 7 8 8 8 7 6 7 7 7 6 6 7 6 6 6 6 6 6 7 6 6 5 5 5 5 4 4 4 4 3 4 5 4 4 3 2 1
5 5 5 7 6 5 5 7 7 6 6 7 7 6 6 6 6 6 6 6 6 6 6 6 6 6 7 6 6 5 4 5 4 4 3 3 3 3 3 5 5 5 4 3
5 4 5 5 5 6 6 6 6 5 5 5 6 6 6 6 6 6 6 6 6 6 5 6 6 7 7 7 6 5 5 5 5 3 3 3 3 3 2 2 3 3 4 4
4 4 5 5 5 6 6 6 6 6 6 6 5 6 6 6 6 6 6 6 6 6 6 6 6 7 7 7 6 5 5 4 4 3 3 3 3 3 2 2 2 3 3 4
5 4 4 4 6 6 6 6 6 7 6 6 6 6 6 5 5 6 5 5 5 6 6 6 6 7 7 6 6 5 4 6 6 4 3 3 3 3 3 3 2 3 3 3
3 4 5 6 6 6 6 5 5 6 6 5 6 6 5 5 5 5 5 5 5 5 5 5 6 7 7 6 5 4 4 5 6 4 3 3 3 3 3 3 2 2 3 3
4 5 5 5 5 6 6 6 5 5 5 5 5 5 4 5 5 6 6 6 5 5 5 5 6 6 6 6 5 4 4 3 3 3 3 3 3 3 3 3 3 3 3 3
3 4 4 5 5 5 5 5 5 5 5 5 4 4 4 4 5 5 5 5 5 6 6 6 10 7 6 7 7 4 4 4 4 3 3 4 4 3 3 3 3 3 3 3
4 3 4 4 4 4 4 5 4 4 5 4 4 4 4 4 5 5 5 5 4 4 6 7 7 6 6 6 8 4 4 3 3 3 3 3 3 3 3 3 3 3 3 3
4 4 4 5 5 5 4 4 4 5 5 4 4 4 4 5 5 4 4 5 5 5 6 9 6 5 5 6 7 4 3 3 3 3 3 3 3 3 3 3 3 3 3 3
4 4 5 4 4 5 4 4 3 4 5 4 4 4 4 5 5 5 4 4 5 9 7 5 5 7 9 8 4 4 3 3 3 3 3 3 3 3 4 4 4 4 4 3
4 4 4 4 4 4 5 4 4 3 4 4 5 5 4 4 4 4 5 4 5 9 8 5 8 11 12 6 4 4 3 3 3 3 3 3 3 4 4 4 4 4 4 4
4 4 4 4 3 3 5 5 4 3 3 4 4 4 4 4 4 3 3 8 10 10 6 8 12 12 10 5 4 4 4 3 3 3 3 3 3 4 4 4 5 4 4 5
3 3 3 3 3 3 4 5 5 4 4 4 4 5 4 3 4 5 5 6 9 9 6 9 11 11 7 4 4 4 4 4 4 4 3 3 4 4 4 4 5 5 5 5
3 3 3 3 3 3 3 3 3 4 4 5 5 4 4 3 4 4 4 5 7 8 7 5 6 7 5 5 5 5 4 5 5 4 4 4 4 4 4 5 6 5 5 4
3 3 3 3 3 3 3 3 3 4 4 4 5 5 4 4 4 4 5 5 5 5 5 5 5 5 5 5 5 5 4 4 4 4 4 4 4 4 5 6 5 6 5 5
Wind_Direction
177 345 40 27 11 31 63 132 203 260 289 311 333 337 340 348 351 354 353 354 354 352 350 350 349 346 343 341 341 339 335 326 315 312 301 288 274 257 244 235 232 222 218 218
322 334 40 26 6 6 17 9 308 313 310 328 330 347 351 346 346 345 341 341 343 346 346 345 341 339 339 337 332 335 333 324 322 318 311 295 283 261 246 237 231 221 221 218
304 326 1 355 341 350 10 7 340 292 290 322 334 339 335 329 329 328 325 328 331 333 332 331 331 332 332 330 330 333 333 334 330 320 309 300 295 280 259 246 232 227 224 213
329 21 309 262 307 336 329 349 5 338 324 326 316 310 306 312 317 319 322 321 322 326 328 329 331 335 336 339 341 340 336 336 333 322 311 306 302 289 271 250 229 231 225 214
83 354 285 314 336 347 302 307 341 330 325 328 327 318 316 323 320 310 312 313 315 318 319 324 333 337 341 345 346 344 338 332 326 322 314 310 304 292 279 257 239 239 226 204
94 116 271 288 308 315 246 318 343 336 322 328 343 333 317 329 328 325 325 323 324 328 334 336 336 339 346 344 343 335 328 322 322 318 310 301 289 282 279 262 250 244 230 198
143 219 273 294 312 351 94 291 321 320 313 318 312 286 301 319 324 329 331 331 332 335 341 337 336 343 343 341 332 324 325 328 330 325 314 302 292 287 273 247 210 187 220 198
126 196 272 324 19 60 265 299 316 317 319 317 306 307 316 323 329 335 338 342 348 347 340 338 341 344 340 333 327 330 334 336 338 336 331 326 331 330 348 139 147 177 182 138
197 219 264 306 263 284 300 304 310 314 313 313 313 318 324 328 331 333 337 339 343 342 336 336 339 340 334 328 335 339 342 343 342 343 347 346 5 15 23 96 152 203 191 185
274 277 285 300 308 321 318 305 305 306 308 313 313 318 323 327 332 335 337 338 340 340 338 334 335 337 333 333 337 342 343 343 344 350 351 356 359 4 12 27 207 210 215 206
275 293 312 309 311 313 319 319 318 319 317 316 316 318 321 323 329 334 336 338 340 339 333 328 330 334 340 340 341 341 343 345 345 347 347 349 356 356 338 319 279 251 225 207
252 267 267 285 298 313 317 319 321 325 328 331 325 316 320 322 326 331 334 338 340 341 338 335 337 338 340 340 341 341 343 345 345 345 347 352 356 359 2 1 358 357 353 303
256 280 268 282 298 309 311 315 321 324 320 321 324 322 322 322 327 332 334 339 339 339 338 337 341 341 342 341 340 339 338 339 341 345 349 350 353 355 354 2 10 12 15 11
279 293 291 301 303 313 314 316 321 324 323 320 320 324 326 326 330 335 333 333 334 339 342 343 345 344 343 342 343 341 341 341 342 340 344 347 348 347 349 354 355 357 1 11
298 283 276 296 310 319 324 328 333 333 332 332 331 332 334 333 332 331 330 336 341 346 346 345 345 342 342 344 345 345 345 345 342 341 343 346 347 348 350 350 350 349 357 2
306 305 302 310 316 322 328 331 328 324 325 326 329 329 326 325 326 327 333 343 345 341 337 338 338 336 339 342 344 343 342 344 346 343 344 347 347 347 347 349 350 351 351 350
310 311 312 314 314 315 316 313 309 310 315 319 319 321 327 330 332 335 337 337 333 326 326 331 331 333 336 336 337 336 334 335 340 339 339 337 336 336 336 338 337 335 335 342
262 271 278 285 296 305 312 316 315 318 316 308 317 328 333 331 326 326 328 331 334 334 332 328 329 333 335 333 333 329 325 323 325 326 328 330 329 329 331 332 332 329 329 338
292 288 293 296 296 298 303 309 313 318 321 321 318 319 318 318 321 323 327 334 337 334 332 330 336 342 333 332 337 328 322 319 323 325 325 326 332 334 332 329 326 325 329 335
314 314 313 312 313 309 308 313 318 323 325 327 328 329 331 329 328 329 332 328 319 307 312 323 330 329 327 329 334 323 320 317 318 320 322 322 323 324 324 323 322 321 321 319
311 317 320 320 319 318 315 317 321 321 327 332 329 324 321 322 324 325 328 325 324 325 329 331 335 327 326 329 332 333 328 322 318 317 318 319 318 317 317 315 314 314 312 310
304 306 309 313 317 319 321 322 317 318 324 330 328 324 325 327 329 326 311 299 311 327 334 328 326 328 333 336 343 339 334 327 320 317 315 314 312 311 310 310 307 308 307 303
292 293 300 305 307 311 321 322 318 320 320 322 323 321 319 316 320 321 319 320 322 327 333 327 328 332 336 347 345 335 327 321 316 311 309 309 307 304 303 304 304 304 302 300
295 299 302 308 319 325 322 320 321 320 314 313 314 313 314 319 319 307 297 318 329 329 331 329 334 337 344 352 336 328 318 313 309 306 306 306 305 306 305 305 305 304 299 296
301 305 313 322 321 310 305 315 323 324 322 319 316 317 315 307 304 313 318 321 326 331 331 332 335 339 344 335 330 325 319 310 308 310 309 309 308 306 304 302 301 299 294 292
303 301 295 291 290 298 308 316 321 322 324 324 324 321 319 317 311 313 317 319 321 327 330 327 328 332 334 329 327 326 324 322 320 319 310 306 304 304 303 304 303 299 295 291
307 306 308 313 311 307 306 310 312 314 317 313 311 317 322 322 321 320 319 320 323 325 323 324 326 327 327 327 325 323 320 317 313 309 306 303 301 299 299 298 296 294 293 293
Height
1502 1500 1500 1499 1498 1496 1497 1499 1500 1497 1495 1493 1491 1490 1487 1485 1482 1480 1478 1477 1475 1473 1472 1471 1470 1469 1468 1467 1467 1466 1466 1466 1466 1466 1467 1467 1468 1468 1469 1470 1472 1473 1474 1476
1503 1499 1499 1499 1500 1499 1498 1499 1499 1497 1497 1494 1492 1490 1487 1485 1483 1481 1479 1477 1475 1473 1471 1470 1469 1468 1466 1465 1464 1464 1463 1463 1463 1463 1463 1464 1464 1465 1465 1466 1467 1468 1470 1471
1506 1503 1500 1505 1506 1504 1502 1502 1501 1500 1499 1495 1493 1490 1488 1486 1484 1482 1479 1477 1475 1473 1471 1470 1468 1466 1465 1463 1462 1461 1461 1460 1460 1460 1460 1460 1460 1461 1461 1462 1463 1464 1465 1466
1508 1508 1513 1511 1505 1504 1503 1502 1501 1499 1497 1495 1493 1490 1488 1486 1484 1481 1479 1477 1474 1472 1470 1469 1467 1465 1464 1462 1460 1459 1458 1457 1457 1456 1456 1456 1456 1457 1457 1458 1458 1459 1460 1462
1512 1515 1511 1508 1505 1506 1506 1504 1501 1500 1497 1494 1492 1488 1486 1485 1483 1481 1478 1476 1474 1471 1470 1468 1466 1464 1462 1460 1459 1457 1456 1455 1454 1454 1453 1452 1452 1452 1453 1454 1454 1455 1456 1458
1515 1515 1515 1512 1506 1504 1505 1504 1501 1499 1497 1494 1491 1489 1486 1484 1481 1479 1477 1474 1472 1470 1468 1466 1464 1463 1460 1458 1457 1456 1454 1453 1452 1451 1450 1449 1449 1449 1449 1450 1451 1451 1452 1453
1518 1518 1514 1511 1506 1504 1510 1509 1502 1499 1497 1494 1492 1491 1487 1483 1480 1477 1475 1472 1469 1467 1466 1464 1463 1461 1459 1457 1455 1454 1452 1451 1449 1448 1447 1446 1445 1446 1446 1446 1447 1448 1449 1449
1519 1521 1519 1510 1507 1509 1509 1504 1501 1499 1496 1494 1491 1488 1485 1481 1478 1475 1472 1469 1467 1465 1464 1463 1461 1459 1457 1455 1454 1452 1450 1448 1447 1445 1444 1443 1442 1442 1443 1443 1443 1444 1445 1446
1520 1519 1512 1510 1509 1508 1506 1503 1500 1498 1495 1493 1489 1486 1483 1480 1477 1474 1471 1468 1466 1464 1463 1462 1460 1458 1456 1454 1452 1450 1448 1446 1445 1444 1442 1441 1440 1440 1440 1440 1441 1441 1442 1443
1517 1512 1510 1509 1507 1505 1504 1501 1499 1496 1493 1490 1487 1484 1481 1478 1475 1473 1470 1467 1465 1464 1462 1460 1459 1457 1455 1453 1451 1449 1447 1445 1444 1442 1441 1440 1439 1439 1438 1438 1438 1439 1440 1441
1515 1511 1508 1506 1505 1504 1501 1499 1497 1494 1492 1489 1486 1483 1480 1477 1474 1472 1469 1467 1465 1463 1461 1459 1457 1456 1454 1452 1450 1448 1446 1444 1443 1441 1440 1439 1438 1438 1437 1437 1437 1437 1438 1439
1514 1511 1510 1506 1504 1502 1499 1497 1494 1492 1489 1487 1485 1481 1479 1476 1473 1470 1468 1466 1464 1461 1460 1458 1456 1454 1452 1451 1449 1446 1444 1443 1442 1440 1439 1438 1437 1436 1436 1436 1436 1436 1436 1437
1510 1508 1506 1504 1502 1500 1497 1495 1492 1490 1487 1485 1482 1480 1477 1474 1472 1470 1467 1465 1463 1461 1459 1457 1455 1453 1451 1449 1447 1445 1444 1442 1441 1440 1438 1437 1436 1435 1434 1434 1435 1435 1435 1435
1507 1506 1503 1501 1500 1497 1495 1493 1490 1488 1485 1483 1481 1478 1476 1473 1471 1468 1466 1464 1462 1460 1458 1456 1454 1452 1450 1448 1446 1445 1443 1442 1441 1439 1438 1437 1436 1435 1434 1433 1433 1432 1433 1433
1505 1504 1502 1500 1497 1495 1493 1490 1488 1485 1483 1481 1479 1476 1474 1471 1469 1467 1465 1463 1461 1459 1457 1455 1453 1451 1450 1448 1446 1444 1443 1442 1441 1439 1438 1437 1436 1435 1434 1434 1433 1432 1432 1432
1502 1501 1499 1497 1495 1493 1491 1488 1485 1483 1481 1478 1476 1474 1472 1470 1468 1466 1464 1462 1460 1458 1456 1454 1452 1451 1449 1447 1445 1444 1443 1442 1441 1439 1438 1437 1436 1435 1434 1433 1433 1432 1431 1432
1500 1498 1496 1494 1493 1491 1489 1486 1484 1481 1479 1477 1474 1472 1470 1468 1466 1465 1463 1461 1459 1457 1455 1453 1451 1450 1448 1447 1445 1443 1442 1441 1440 1439 1438 1437 1436 1435 1434 1433 1433 1432 1432 1432
1498 1497 1495 1493 1491 1489 1487 1484 1482 1480 1477 1475 1473 1471 1469 1467 1465 1463 1461 1460 1458 1456 1455 1453 1451 1449 1447 1446 1444 1443 1442 1440 1439 1438 1437 1436 1436 1435 1434 1433 1432 1432 1431 1431
1496 1495 1493 1491 1490 1487 1485 1483 1480 1478 1476 1473 1471 1469 1468 1466 1464 1462 1460 1458 1456 1454 1453 1451 1450 1448 1446 1445 1443 1442 1440 1439 1438 1437 1436 1435 1435 1434 1433 1432 1431 1431 1430 1430
1494 1493 1491 1489 1488 1486 1483 1481 1479 1477 1474 1472 1469 1467 1466 1465 1463 1461 1459 1457 1456 1453 1451 1450 1448 1446 1445 1443 1442 1440 1439 1438 1436 1436 1435 1434 1433 1432 1431 1431 1430 1429 1429 1428
1492 1490 1489 1487 1485 1484 1482 1479 1477 1475 1473 1471 1468 1466 1464 1463 1461 1459 1457 1455 1454 1452 1450 1449 1447 1445 1444 1442 1440 1439 1437 1436 1435 1434 1433 1432 1431 1430 1430 1429 1428 1428 1427 1427
1490 1489 1487 1485 1483 1481 1480 1478 1476 1473 1471 1469 1467 1465 1463 1461 1460 1458 1456 1455 1452 1451 1449 1447 1445 1444 1442 1441 1439 1437 1436 1434 1433 1432 1431 1430 1429 1428 1428 1427 1426 1426 1425 1425
1488 1486 1485 1483 1481 1479 1478 1476 1474 1472 1470 1467 1465 1464 1462 1460 1458 1456 1454 1453 1451 1449 1447 1446 1444 1442 1441 1439 1437 1436 1434 1433 1432 1431 1430 1429 1428 1427 1426 1425 1424 1423 1423 1422
1486 1484 1483 1481 1480 1478 1476 1474 1472 1470 1468 1466 1464 1462 1460 1458 1456 1455 1453 1451 1449 1447 1446 1444 1442 1441 1439 1437 1436 1434 1433 1431 1430 1429 1428 1427 1426 1425 1424 1423 1422 1421 1420 1419
1484 1482 1481 1479 1477 1476 1474 1472 1470 1468 1466 1465 1463 1461 1459 1457 1455 1453 1451 1450 1448 1446 1444 1443 1441 1439 1437 1436 1434 1433 1431 1430 1428 1427 1426 1425 1424 1423 1422 1420 1419 1418 1417 1417
1481 1480 1479 1477 1476 1474 1472 1470 1468 1466 1464 1462 1461 1459 1457 1456 1454 1452 1450 1448 1446 1445 1443 1441 1439 1438 1436 1434 1433 1431 1429 1428 1427 1425 1424 1423 1422 1421 1419 1418 1417 1416 1415 1414
1479 1478 1476 1475 1474 1472 1470 1468 1466 1465 1463 1461 1459 1457 1456 1454 1452 1450 1448 1447 1445 1443 1441 1440 1438 1436 1435 1433 1431 1429 1428 1426 1425 1423 1422 1421 1420 1418 1417 1416 1414 1413 1412 1411